Wind_Speed
44 45 41 41 43 43 44 45 46 43 48 53 48 49 42 35 35 35 38 39 37 36 37 36 38 38 40 40 41 42 43 44 42 41 42 42 42 43 41 41 43 47 49 47
45 43 38 42 43 44 46 47 46 47 49 52 51 49 45 42 35 36 35 38 37 38 36 38 39 38 39 39 41 41 44 44 44 41 42 43 43 43 43 43 48 50 52 51
45 41 41 42 41 43 45 46 47 50 49 51 55 52 47 42 42 35 33 34 29 30 35 39 43 43 42 44 45 46 45 46 44 41 42 44 45 44 45 48 51 52 54 52
49 43 41 42 42 44 49 45 48 49 51 54 53 57 49 49 43 41 39 29 26 30 35 41 46 45 45 46 47 48 48 46 44 44 43 43 43 45 48 51 52 55 55 55
46 45 45 46 44 45 49 47 47 49 52 58 54 61 55 54 46 38 39 31 32 30 34 39 44 48 48 46 46 46 47 45 44 43 43 41 42 46 49 53 56 57 56 59
47 46 44 44 43 44 46 47 49 53 54 61 57 61 56 49 43 42 37 35 38 38 39 43 47 49 47 44 45 46 46 44 44 43 43 42 46 49 52 54 59 58 58 59
49 48 48 46 45 46 46 47 52 57 56 62 59 61 47 46 52 52 40 40 39 36 40 44 48 50 50 45 42 45 46 46 46 46 45 47 51 54 55 58 60 58 59 63
50 51 45 46 46 49 53 50 52 56 58 65 61 61 53 59 55 50 42 35 33 37 39 46 51 56 51 46 44 45 49 49 50 50 50 52 57 58 58 59 60 60 61 65
50 54 52 52 53 52 56 58 53 55 57 62 63 61 62 62 57 45 45 43 41 37 38 45 52 55 52 49 48 49 51 51 51 53 54 56 60 60 59 59 60 61 64 65
54 55 54 55 55 59 55 56 59 58 60 65 65 65 67 66 56 44 45 49 46 45 42 48 56 55 56 52 48 50 51 52 54 54 55 58 61 62 62 61 62 64 64 68
58 61 62 62 62 60 61 64 62 59 63 66 63 65 67 62 56 50 51 47 43 48 46 53 59 61 57 52 52 52 51 54 54 55 55 58 59 60 58 62 63 66 69 71
61 63 66 64 63 63 66 65 64 66 64 66 69 68 63 53 57 54 50 48 49 54 49 56 63 65 63 54 56 54 54 57 57 57 59 59 59 60 62 65 66 69 70 74
67 71 71 68 66 67 64 62 61 64 68 74 74 75 53 55 56 48 51 51 55 56 55 59 63 67 66 60 58 56 59 60 59 59 60 61 62 60 60 61 65 69 72 77
70 76 74 71 63 65 65 66 67 69 75 75 77 76 56 46 48 47 50 52 55 55 59 62 66 65 63 65 60 60 62 62 61 61 61 61 60 60 61 66 69 74 74 77
65 71 70 71 67 66 68 68 62 72 73 79 73 79 63 51 45 48 52 58 59 60 58 58 60 63 65 64 62 62 63 62 60 62 60 61 59 59 63 66 71 75 80 82
70 75 71 72 69 67 66 63 67 62 64 70 70 71 57 53 53 55 58 56 56 57 62 64 67 67 66 65 68 65 63 62 62 57 59 56 57 65 67 71 76 79 80 82
63 63 59 63 59 60 60 62 49 57 54 56 63 62 58 57 59 59 58 62 60 60 63 68 67 65 64 65 66 64 62 64 60 57 56 61 68 69 71 76 79 77 79 81
75 74 74 77 78 88 71 59 61 63 58 53 61 62 60 62 63 62 60 62 65 65 63 58 56 59 61 62 61 61 64 66 63 61 63 64 68 71 74 74 73 75 78 81
84 78 77 78 84 91 94 74 74 82 85 79 72 66 71 60 58 63 56 61 62 61 61 59 56 55 53 55 61 61 62 66 64 64 67 67 68 71 70 72 71 73 75 77
84 85 87 90 97 104 99 93 90 89 81 79 80 56 56 64 68 59 56 47 52 51 51 46 47 55 55 49 57 63 65 68 73 70 65 65 67 69 68 69 67 69 74 75
92 90 92 96 97 95 90 87 91 86 92 75 59 59 57 57 64 69 71 66 66 63 64 71 71 68 63 54 60 58 67 73 74 69 65 66 64 63 69 67 66 68 70 73
91 93 95 91 93 98 90 84 88 89 85 74 65 63 61 59 57 57 61 63 68 75 68 62 64 67 60 57 63 65 66 69 70 70 67 66 65 64 67 68 69 70 69 71
87 85 89 89 88 86 84 80 80 75 73 74 73 63 67 73 68 59 68 65 62 61 64 68 64 66 71 66 60 59 60 70 71 69 66 67 68 62 66 67 69 71 69 69
77 73 77 80 83 75 69 68 68 65 69 66 66 74 72 70 72 72 75 77 73 66 64 68 69 69 73 77 78 75 71 65 71 69 64 67 72 59 63 68 69 68 67 70
73 76 72 76 70 73 74 72 65 65 68 64 67 79 86 86 88 87 88 78 74 77 74 74 74 68 75 71 67 68 67 62 66 73 70 70 66 63 66 65 64 66 66 67
76 87 94 89 66 64 68 79 71 72 74 77 88 90 87 91 90 73 71 74 77 78 82 84 80 65 75 69 62 62 59 60 65 69 62 56 57 62 64 61 60 62 63 64
Wind_Direction
286 283 286 282 283 286 286 286 286 289 289 290 293 290 296 294 295 299 297 293 288 282 289 289 288 289 292 293 294 292 291 291 292 289 286 286 287 287 287 286 285 285 286 287
285 286 286 284 285 286 285 286 288 287 288 290 290 288 295 297 299 298 294 292 287 285 283 286 285 289 290 293 295 296 295 294 290 290 285 283 284 284 285 285 286 287 287 286
282 287 286 288 288 289 288 288 288 288 288 287 288 289 295 299 301 301 297 295 286 281 279 282 282 284 287 292 293 296 297 291 288 290 286 280 280 281 282 285 288 288 286 287
278 282 284 285 287 287 285 288 289 291 291 291 293 297 297 303 306 309 307 295 287 285 281 278 278 282 288 291 294 296 295 292 287 284 280 276 278 280 283 288 289 287 285 290
278 279 278 281 282 282 285 287 287 288 289 294 299 299 303 303 307 313 306 301 298 290 285 282 280 283 287 288 295 293 295 290 287 280 276 274 274 279 286 290 293 286 288 287
277 278 276 277 278 279 283 284 285 284 288 292 302 297 294 303 305 306 310 301 304 300 289 288 289 289 288 293 293 292 294 292 286 279 276 277 280 285 288 289 289 285 285 290
274 274 275 276 279 279 280 282 282 285 291 293 295 291 298 304 301 304 304 296 299 292 296 294 291 291 292 294 290 292 289 290 286 282 278 280 284 286 287 289 287 284 286 291
274 274 276 274 276 278 278 276 275 286 288 287 286 287 299 299 299 302 308 302 304 297 293 288 289 288 294 298 294 291 288 289 283 280 280 284 286 287 287 287 283 282 286 291
278 273 276 274 275 275 278 277 282 278 281 283 289 292 296 294 295 305 310 304 307 305 292 289 288 289 294 296 298 292 290 288 283 281 282 284 286 286 283 283 283 284 286 293
270 268 267 268 268 268 274 278 278 279 278 279 286 289 289 291 298 308 311 302 306 302 290 287 285 290 293 297 298 292 290 286 280 280 282 285 286 283 281 282 283 286 290 295
271 272 273 273 270 273 274 274 274 275 278 280 288 280 287 296 307 305 304 300 300 297 290 287 290 292 292 297 297 293 288 282 280 281 284 285 280 279 281 283 285 288 291 293
270 267 266 268 271 274 273 276 278 275 281 281 277 281 292 300 297 296 300 296 292 289 292 284 285 288 289 292 296 294 284 279 279 282 286 281 279 280 282 286 288 291 291 295
271 269 271 272 273 275 275 280 276 273 274 274 273 285 299 293 291 297 297 292 288 289 285 282 281 283 288 292 293 289 281 279 282 283 281 275 276 284 287 289 293 293 295 296
270 271 271 274 276 275 271 276 272 270 272 280 278 287 294 288 295 289 286 282 284 286 284 280 282 286 289 289 286 285 283 280 280 280 276 274 280 286 291 293 294 296 297 296
265 267 267 268 274 265 266 271 269 272 278 280 287 282 292 294 283 278 284 284 284 288 289 287 286 286 286 285 282 286 284 279 280 279 277 277 286 294 295 297 297 298 297 296
264 264 266 266 268 268 265 265 270 274 281 285 284 283 291 285 282 284 290 288 286 286 289 291 290 291 290 288 287 285 283 278 279 273 275 284 291 299 297 295 296 294 295 297
263 262 265 269 268 269 264 269 269 268 270 281 280 288 287 290 291 288 288 286 289 285 287 286 287 288 288 286 286 284 281 278 273 275 288 296 297 293 293 292 293 295 297 299
270 267 269 274 273 272 268 270 272 272 276 282 287 288 295 293 289 288 290 292 288 287 287 286 286 285 285 288 286 281 279 275 269 277 295 296 293 292 293 294 296 297 298 301
279 277 275 275 276 278 276 272 280 278 276 283 287 286 296 291 286 288 294 288 288 285 285 286 286 286 285 286 283 279 273 266 271 289 290 290 288 292 293 294 296 299 301 302
278 271 269 273 278 279 285 286 288 288 276 280 294 293 281 278 278 287 287 291 297 291 288 285 292 300 301 293 286 278 277 280 283 283 287 286 288 289 292 296 296 300 301 302
274 273 275 278 275 276 280 286 285 275 290 294 279 277 279 275 278 282 283 281 282 280 284 294 295 299 297 293 284 284 282 279 280 282 285 285 288 290 292 295 298 300 301 301
267 269 271 270 270 271 282 283 278 285 285 281 281 285 275 281 282 283 279 282 281 284 288 288 293 296 284 282 288 284 278 276 281 284 282 283 287 291 293 296 299 299 299 300
268 273 269 271 275 279 281 283 287 280 275 274 283 288 279 282 277 277 281 282 280 278 289 294 295 292 289 282 286 279 281 276 281 285 285 283 284 285 292 295 298 296 297 301
270 273 268 270 272 273 278 280 275 274 274 274 276 281 286 280 279 280 281 280 276 278 290 295 293 291 284 282 284 282 276 280 278 279 283 279 278 288 293 290 290 294 298 302
257 262 265 265 266 276 275 274 272 263 263 273 273 282 287 287 284 280 279 277 275 273 280 293 296 288 287 282 282 275 274 281 285 276 281 287 288 285 289 289 293 296 301 303
255 261 268 265 262 265 264 266 259 257 259 262 274 281 285 284 282 276 277 281 278 277 279 287 293 287 287 280 280 277 276 288 291 284 288 287 289 289 289 290 295 298 299 299
Height
5837 5836 5839 5836 5833 5831 5829 5826 5823 5824 5815 5807 5809 5801 5808 5810 5807 5804 5800 5793 5789 5786 5783 5780 5777 5773 5770 5767 5764 5760 5757 5752 5750 5746 5743 5741 5739 5737 5735 5734 5732 5729 5726 5724
5827 5827 5830 5825 5823 5821 5818 5815 5815 5811 5806 5797 5794 5791 5796 5796 5799 5795 5790 5785 5781 5778 5774 5770 5766 5763 5761 5757 5753 5749 5745 5741 5737 5735 5732 5730 5727 5726 5725 5722 5720 5717 5714 5710
5816 5820 5818 5815 5813 5810 5807 5805 5802 5797 5796 5790 5780 5778 5782 5786 5784 5786 5780 5775 5772 5768 5765 5760 5755 5752 5749 5746 5742 5737 5733 5728 5726 5723 5720 5718 5716 5714 5711 5708 5707 5703 5699 5695
5805 5810 5808 5805 5804 5801 5794 5797 5791 5787 5783 5775 5776 5754 5771 5772 5772 5771 5767 5764 5762 5760 5756 5750 5744 5741 5739 5735 5731 5727 5722 5717 5714 5711 5707 5705 5703 5701 5699 5696 5690 5686 5683 5680
5799 5797 5796 5794 5794 5791 5785 5784 5781 5776 5771 5762 5767 5756 5755 5756 5757 5761 5753 5753 5751 5749 5744 5738 5733 5729 5727 5725 5721 5716 5711 5707 5703 5699 5695 5692 5689 5687 5683 5680 5676 5671 5666 5662
5787 5785 5784 5783 5782 5779 5775 5772 5769 5764 5761 5750 5757 5749 5742 5748 5745 5746 5749 5742 5738 5735 5729 5724 5719 5715 5712 5711 5707 5703 5699 5694 5690 5686 5684 5681 5678 5675 5670 5666 5662 5657 5651 5647
5776 5773 5772 5772 5770 5767 5765 5762 5755 5750 5750 5741 5742 5733 5733 5739 5735 5732 5734 5730 5727 5722 5717 5712 5705 5700 5697 5697 5695 5690 5686 5681 5678 5674 5671 5668 5665 5661 5656 5652 5648 5643 5637 5631
5758 5758 5761 5760 5759 5754 5749 5750 5746 5741 5737 5728 5729 5717 5723 5719 5720 5723 5722 5718 5715 5712 5707 5699 5694 5687 5685 5683 5680 5675 5671 5667 5664 5661 5658 5655 5651 5646 5640 5635 5632 5626 5620 5614
5745 5742 5744 5743 5741 5740 5737 5732 5736 5728 5726 5717 5713 5710 5708 5706 5705 5711 5708 5705 5702 5699 5694 5687 5680 5674 5672 5669 5667 5662 5657 5653 5649 5646 5643 5640 5636 5631 5626 5620 5615 5610 5604 5598
5726 5722 5726 5724 5725 5722 5723 5723 5716 5714 5710 5705 5701 5700 5695 5691 5697 5702 5696 5687 5685 5682 5679 5671 5662 5661 5657 5654 5650 5646 5643 5639 5633 5630 5627 5624 5620 5616 5610 5605 5599 5594 5587 5580
5713 5708 5710 5709 5708 5710 5705 5701 5701 5700 5695 5688 5689 5682 5682 5685 5686 5683 5682 5677 5672 5666 5662 5654 5649 5645 5640 5638 5636 5631 5626 5622 5618 5616 5612 5607 5603 5599 5594 5589 5583 5576 5569 5561
5692 5685 5683 5691 5692 5691 5686 5686 5686 5677 5678 5674 5666 5666 5674 5681 5673 5675 5668 5663 5657 5648 5646 5641 5635 5629 5627 5625 5622 5618 5611 5606 5602 5600 5597 5591 5587 5583 5578 5572 5565 5559 5551 5543
5672 5662 5662 5670 5674 5671 5670 5672 5669 5664 5660 5651 5645 5645 5675 5663 5659 5659 5652 5645 5637 5632 5629 5624 5619 5614 5612 5610 5606 5602 5596 5591 5588 5584 5580 5574 5570 5566 5560 5554 5547 5541 5533 5524
5650 5640 5641 5645 5658 5653 5649 5649 5650 5645 5634 5635 5629 5628 5649 5653 5649 5642 5636 5630 5625 5620 5615 5609 5604 5602 5599 5594 5590 5585 5581 5577 5572 5568 5563 5559 5555 5551 5544 5539 5531 5523 5514 5505
5628 5619 5623 5625 5631 5631 5628 5628 5637 5628 5620 5609 5617 5610 5625 5633 5628 5623 5618 5614 5610 5604 5599 5596 5591 5587 5582 5578 5574 5570 5566 5561 5556 5552 5547 5543 5538 5534 5527 5519 5512 5503 5496 5486
5609 5602 5603 5598 5609 5610 5604 5607 5620 5617 5614 5596 5591 5592 5615 5608 5607 5605 5604 5594 5592 5589 5581 5578 5573 5568 5563 5560 5556 5551 5548 5544 5539 5534 5530 5526 5521 5515 5508 5501 5492 5484 5477 5468
5591 5586 5583 5576 5588 5585 5574 5602 5597 5596 5597 5592 5579 5583 5592 5592 5586 5584 5583 5576 5577 5573 5567 5559 5555 5549 5545 5541 5536 5533 5530 5526 5521 5517 5514 5509 5504 5498 5490 5482 5474 5467 5460 5451
5571 5569 5564 5558 5563 5544 5566 5586 5583 5575 5578 5583 5571 5575 5578 5571 5566 5566 5566 5557 5554 5551 5547 5541 5537 5531 5527 5525 5521 5517 5514 5509 5506 5501 5498 5491 5486 5479 5472 5466 5458 5451 5442 5434
5553 5549 5539 5535 5529 5530 5532 5570 5574 5556 5547 5563 5563 5566 5562 5552 5541 5548 5545 5534 5533 5528 5524 5521 5517 5513 5509 5506 5502 5499 5497 5493 5488 5483 5478 5472 5466 5460 5453 5448 5441 5433 5423 5416
5533 5527 5517 5513 5501 5497 5521 5543 5551 5524 5499 5560 5550 5540 5540 5536 5519 5528 5526 5518 5513 5509 5505 5503 5500 5498 5496 5492 5488 5485 5481 5477 5471 5464 5459 5452 5446 5442 5436 5428 5420 5413 5405 5398
5509 5500 5491 5489 5479 5475 5497 5519 5519 5490 5508 5529 5524 5519 5517 5512 5507 5508 5505 5506 5497 5491 5488 5486 5481 5479 5475 5471 5469 5467 5462 5456 5449 5445 5439 5434 5429 5424 5419 5411 5400 5392 5385 5379
5484 5481 5476 5474 5463 5452 5489 5493 5481 5492 5494 5494 5499 5500 5495 5492 5492 5488 5486 5484 5479 5473 5469 5469 5464 5461 5458 5454 5452 5447 5442 5436 5432 5427 5422 5416 5411 5405 5401 5394 5386 5376 5368 5362
5444 5455 5457 5455 5444 5451 5460 5460 5463 5466 5465 5470 5470 5474 5470 5469 5470 5469 5466 5463 5461 5456 5452 5449 5448 5446 5441 5437 5432 5428 5424 5418 5414 5409 5405 5400 5394 5389 5384 5378 5370 5361 5353 5347
5426 5434 5425 5429 5434 5437 5439 5438 5438 5438 5439 5444 5445 5448 5444 5446 5447 5444 5444 5443 5440 5435 5431 5432 5429 5425 5421 5417 5414 5410 5406 5400 5395 5391 5387 5381 5376 5371 5368 5362 5353 5344 5338 5331
5408 5411 5411 5407 5412 5413 5415 5417 5417 5417 5414 5413 5414 5416 5420 5421 5420 5419 5417 5418 5417 5413 5410 5410 5409 5406 5403 5399 5392 5388 5386 5381 5378 5373 5368 5364 5359 5354 5350 5345 5338 5331 5324 5318
5395 5393 5390 5388 5393 5386 5388 5391 5393 5393 5392 5393 5389 5392 5395 5394 5393 5393 5393 5395 5395 5393 5390 5387 5388 5387 5382 5377 5373 5370 5366 5362 5360 5355 5351 5346 5340 5336 5333 5329 5323 5316 5310 5302